This is the latest recevied weather packets stored in our database for station/object KF6ILA. If no packets are shown the sender has not sent any weather packets the latest 10 day(s).
| Time | Temp. | Humidity | Pressure | Rain* | Wind** | Luminosity | Snow |
|---|---|---|---|---|---|---|---|
| 1787777929 | 36.67° C | 25% | 1017.9 hPa | 0 mm | - | 1007 W/m² | - |
| 1787777647 | 36.11° C | 25% | 1018 hPa | 0 mm | - | 962 W/m² | - |
| 1787777335 | 36.11° C | 24% | 1018.1 hPa | 0 mm | - | 250 W/m² | - |
| 1787777038 | 36.67° C | 24% | 1018.1 hPa | 0 mm | - | 304 W/m² | - |
| 1787776444 | 37.78° C | 23% | 1018.1 hPa | 0 mm | - | 529 W/m² | - |
| 1787776147 | 37.22° C | 24% | 1018.2 hPa | 0 mm | - | 735 W/m² | - |
| 1787775850 | 37.22° C | 23% | 1018.3 hPa | 0 mm | - | 930 W/m² | - |
| 1787775553 | 36.67° C | 24% | 1018.3 hPa | 0 mm | - | 902 W/m² | - |
| 1787775256 | 36.11° C | 24% | 1018.3 hPa | 0 mm | - | 1183 W/m² | - |
| 1787774959 | 36.11° C | 24% | 1018.4 hPa | 0 mm | - | 540 W/m² | - |
| 1787774365 | 36.11° C | 24% | 1018.5 hPa | 0 mm | - | 506 W/m² | - |
| 1787774068 | 36.11° C | 25% | 1018.4 hPa | 0 mm | - | 671 W/m² | - |
| 1787773771 | 35.56° C | 25% | 1018.3 hPa | 0 mm | - | 501 W/m² | - |
| 1787773474 | 35° C | 25% | 1017.5 hPa | 0 mm | - | 385 W/m² | - |
| 1787773177 | 35° C | 24% | 1018.3 hPa | 0 mm | - | 345 W/m² | - |
| 1787772583 | 34.44° C | 24% | 1018.2 hPa | 0 mm | - | 953 W/m² | - |
| 1787772286 | 35° C | 23% | 1018.3 hPa | 0 mm | - | 283 W/m² | - |
| 1787771989 | 35.56° C | 24% | 1018.3 hPa | 0 mm | - | 1053 W/m² | - |
| 1787771692 | 35° C | 24% | 1018.2 hPa | 0 mm | - | 1171 W/m² | - |
| 1787771395 | 35.56° C | 24% | 1018.4 hPa | 0 mm | - | 1171 W/m² | - |
| 1787770801 | 35° C | 24% | 1018.6 hPa | 0 mm | - | 1085 W/m² | - |
| 1787769910 | 35° C | 24% | 1018.8 hPa | 0 mm | - | 990 W/m² | - |
| 1787769613 | 35° C | 24% | 1018.8 hPa | 0 mm | - | 969 W/m² | - |
| 1787769316 | 34.44° C | 24% | 1018.9 hPa | 0 mm | - | 942 W/m² | - |
| 1787768722 | 35° C | 24% | 1018.9 hPa | 0 mm | - | 954 W/m² | - |
* Rain latest hour (hover to see other rain measurements)
** Current wind speed in m/s (hover to see current wind gust speed)